This demonstration page uses our WeatherBlox Daily Observations layout. Learn more.

Hourly Observations for May 4, 2015

Temp ( °F °C ) Dew Point ( °F °C ) Humidity (%) Winds ( mph kmh ) Pressure ( in mb ) Visibility ( mi km ) Precip ( " mm )
12:15 am 00:15 Partly Cloudy 63 17 41 5 45 45 NNE 17 28 29.88 1012 10 16.0934 0 0
12:35 am 00:35 Mostly Cloudy 62 16.5 40 4.7 46 46 NNE 17 28 29.88 1012 10 16.0934 0 0
12:55 am 00:55 Partly Cloudy 61 16.3 40 4.6 46 46 NNE 20 31 29.88 1012 10 16.0934 0 0
1:15 am 01:15 Mostly Cloudy 61 16.2 40 4.4 46 46 NNE 18 30 29.88 1012 10 16.0934 0 0
1:35 am 01:35 Partly Cloudy 61 16 39 4.1 45 45 NNE 20 31 29.88 1012 10 16.0934 0 0
1:55 am 01:55 Partly Cloudy 60 15.7 39 4 46 46 NE 18 30 29.88 1012 10 16.0934 0 0
2:15 am 02:15 Mostly Cloudy 60 15.8 38 3.6 44 44 NNE 20 31 29.88 1012 10 16.0934 0 0
2:35 am 02:35 Partly Cloudy 60 15.8 38 3.4 44 44 NNE 25 41 29.88 1012 10 16.0934 0 0
2:55 am 02:55 Mostly Cloudy with Nearby Thunderstorms 60 15.8 38 3.5 44 44 NNE 8 13 29.94 1014 10 16.0934 0 0
3:15 am 03:15 Cloudy with Nearby Thunderstorms 58 14.5 41 5.2 54 54 N 8 13 30 1016 10 16.0934 0.01 0.254
3:35 am 03:35 Cloudy with Light Thunderstorms 55 13 43 6.1 63 63 N 16 26 30 1016 10 16.0934 0.04 1.016
3:55 am 03:55 Cloudy with Light Rain 55 12.7 43 6.3 65 65 NNE 25 41 29.97 1015 10 16.0934 0.05 1.27
4:15 am 04:15 Cloudy with Light Rain 55 13 43 6 63 63 N 23 37 29.94 1014 10 16.0934 0.01 0.254
4:35 am 04:35 Mostly Cloudy with Light Drizzle 55 12.5 44 6.7 68 68 NNE 23 37 29.94 1014 10 16.0934 0.01 0.254
4:55 am 04:55 Partly Cloudy 55 12.5 44 6.6 68 68 ENE 16 26 29.97 1015 10 16.0934 0.01 0.254
5:15 am 05:15 Partly Cloudy 54 12.2 45 7.2 72 72 ENE 12 19 30 1016 10 16.0934 0 0
5:35 am 05:35 Partly Cloudy 55 12.5 45 7.2 70 70 NNE 12 19 29.97 1015 10 16.0934 0 0
5:55 am 05:55 Clear 54 12.2 46 7.8 75 75 N 16 26 29.97 1015 10 16.0934 0 0
6:15 am 06:15 Clear 54 12.4 44 6.9 69 69 NE 15 24 30 1016 10 16.0934 0 0
6:35 am 06:35 Sunny 54 12 45 7.1 72 72 NE 15 24 30 1016 10 16.0934 0 0
6:55 am 06:55 Sunny 53 11.6 46 7.5 76 76 NE 12 19 30 1016 10 16.0934 0 0
7:15 am 07:15 Mostly Cloudy 54 12.2 45 7 71 71 NE 14 22 30 1016 10 16.0934 0 0
7:35 am 07:35 Cloudy 54 12.4 44 6.5 68 68 NE 14 22 30.03 1017 10 16.0934 0 0
7:55 am 07:55 Cloudy 54 12.3 43 6 66 66 NNE 9 15 30.06 1018 10 16.0934 0 0
8:15 am 08:15 Cloudy 54 12.2 44 6.5 68 68 N 6 9 30.06 1018 10 16.0934 0 0
8:35 am 08:35 Cloudy 54 12.2 43 6.1 67 67 N 7 11 30.06 1018 10 16.0934 0 0
8:55 am 08:55 Cloudy 54 12.1 44 6.9 71 71 N 9 15 30.06 1018 10 16.0934 0 0
9:15 am 09:15 Cloudy 55 12.7 43 6.3 65 65 NNE 9 15 30.06 1018 10 16.0934 0 0
9:35 am 09:35 Cloudy 55 12.9 42 5.4 61 61 NE 14 22 30.06 1018 10 16.0934 0 0
9:55 am 09:55 Cloudy 55 12.8 42 5.7 62 62 NE 13 20 30.09 1019 10 16.0934 0 0
10:15 am 10:15 Cloudy 56 13.2 42 5.7 61 61 NE 14 22 30.09 1019 10 16.0934 0 0
10:35 am 10:35 Cloudy with Light Drizzle 55 13 44 6.6 65 65 NE 14 22 30.09 1019 10 16.0934 0 0
10:55 am 10:55 Cloudy 56 13.5 44 6.4 62 62 NE 14 22 30.06 1018 10 16.0934 0 0
11:15 am 11:15 Cloudy 57 14 42 5.6 57 57 NE 18 30 30.06 1018 10 16.0934 0 0
11:35 am 11:35 Cloudy 57 14.1 43 6.2 59 59 NE 17 28 30.06 1018 10 16.0934 0 0
11:55 am 11:55 Cloudy 58 14.5 43 6.1 57 57 NE 18 30 30.06 1018 10 16.0934 0 0
12:15 pm 12:15 Cloudy 58 14.5 42 5.6 55 55 NE 17 28 30.06 1018 10 16.0934 0 0
12:35 pm 12:35 Cloudy 57 14 43 5.9 58 58 NE 14 22 30.06 1018 10 16.0934 0 0
12:55 pm 12:55 Cloudy with Rain 57 14.1 44 6.4 60 60 ENE 12 19 30.06 1018 10 16.0934 0 0
1:15 pm 13:15 Cloudy with Light Rain 56 13.1 46 7.9 71 71 ENE 10 17 30.09 1019 10 16.0934 0 0
1:35 pm 13:35 Cloudy with Light Rain 55 12.7 48 9 78 78 NE 16 26 30.09 1019 10 16.0934 0.01 0.254
1:55 pm 13:55 Cloudy 55 12.6 48 8.9 78 78 ENE 15 24 30.09 1019 10 16.0934 0.01 0.254
2:15 pm 14:15 Cloudy 55 12.6 48 8.8 78 78 NE 15 24 30.09 1019 10 16.0934 0 0
2:35 pm 14:35 Cloudy 55 12.8 48 8.9 77 77 NNE 13 20 30.09 1019 10 16.0934 0 0
2:55 pm 14:55 Cloudy 55 12.6 48 9.1 79 79 NE 14 22 30.09 1019 10 16.0934 0 0
3:15 pm 15:15 Cloudy 55 13 49 9.4 79 79 NE 14 22 30.09 1019 10 16.0934 0 0
3:35 pm 15:35 Cloudy 55 13 48 9.1 77 77 NE 12 19 30.09 1019 10 16.0934 0 0
3:55 pm 15:55 Cloudy 55 12.7 48 8.8 77 77 NE 13 20 30.09 1019 10 16.0934 0 0
4:15 pm 16:15 Cloudy 55 12.5 48 8.7 78 78 NE 12 19 30.09 1019 10 16.0934 0 0
4:35 pm 16:35 Cloudy 54 12.3 48 8.7 79 79 NE 12 19 30.09 1019 10 16.0934 0 0
4:55 pm 16:55 Cloudy 55 12.5 49 9.2 80 80 NNE 15 24 30.06 1018 10 16.0934 0 0
5:15 pm 17:15 Cloudy 54 12.4 49 9.3 82 82 NNE 16 26 30.06 1018 10 16.0934 0 0
5:35 pm 17:35 Cloudy 54 12.4 49 9.4 82 82 NE 17 28 30.06 1018 10 16.0934 0 0
5:55 pm 17:55 Cloudy 55 12.8 49 9.6 81 81 NNE 20 31 30.06 1018 10 16.0934 0 0
6:15 pm 18:15 Cloudy 55 12.7 49 9.7 82 82 NE 21 33 30.06 1018 10 16.0934 0 0
6:35 pm 18:35 Cloudy 55 12.7 49 9.7 82 82 NE 18 30 30.06 1018 10 16.0934 0 0
6:55 pm 18:55 Cloudy 55 12.6 50 10 84 84 NNE 18 30 30 1016 10 16.0934 0 0
7:15 pm 19:15 Cloudy 55 12.5 50 9.9 84 84 NE 17 28 30.06 1018 10 16.0934 0 0
7:35 pm 19:35 Cloudy 54 12.3 50 10 86 86 NE 16 26 30.06 1018 10 16.0934 0 0
7:55 pm 19:55 Cloudy 54 12.2 50 10 87 87 NE 12 19 30.06 1018 10 16.0934 0 0
8:15 pm 20:15 Cloudy 54 12.1 50 10.1 88 88 ENE 12 19 30.06 1018 10 16.0934 0 0
8:35 pm 20:35 Cloudy 54 12 51 10.4 90 90 ENE 13 20 30.06 1018 7 11.26538 0 0
8:55 pm 20:55 Cloudy with Mist and Fog 53 11.9 51 10.5 91 91 ENE 9 15 30.06 1018 5 8.0467 0 0
9:15 pm 21:15 Cloudy with Mist and Fog 54 12 51 10.7 92 92 ENE 9 15 30.09 1019 5 8.0467 0 0
9:35 pm 21:35 Cloudy 54 12.2 52 10.9 92 92 ENE 8 13 30.09 1019 7 11.26538 0 0
9:55 pm 21:55 Cloudy with Mist and Fog 54 12.2 52 10.9 92 92 ENE 8 13 30.09 1019 5 8.0467 0 0
10:15 pm 22:15 Cloudy with Mist and Fog 54 12.3 52 11 92 92 ENE 8 13 30.09 1019 5 8.0467 0 0
10:35 pm 22:35 Cloudy with Nearby Thunderstorms 54 12.3 52 11.1 92 92 ENE 7 11 30.09 1019 5 8.0467 0 0
10:55 pm 22:55 Cloudy with Nearby Thunderstorms 54 12.2 52 11.1 93 93 ENE 7 11 30.09 1019 3 4.82802 0 0
11:15 pm 23:15 Cloudy with Thunderstorms 54 12.2 52 11.3 94 94 ENE 8 13 30.09 1019 1.5 2.41401 0 0
11:35 pm 23:35 Cloudy with Thunderstorms 54 12.1 52 11.3 95 95 E 7 11 30.09 1019 1 1.60934 0 0
11:55 pm 23:55 Cloudy with Mist and Fog 54 12.1 53 11.5 96 96 E 6 9 30.09 1019 0.75 1.207005 0 0

Powered by AerisWeather